URO803 ZWWW-EGNV

Flight info

Callsign URO803
Flight time N/A
Altitude 32100
Route NIXER7W NIXER W119 GOBOK/K0880S1040 A343 RULAD/K0880F340 M610 ARBOL Z621 TRK N147 OTBOR/N0476F340 A480 TIMGA B476 IZGAR/N0471F360 B476 METKA L88 NIJAT N644 ROLIN UN644 KARDE UL851 KUGOS/K0893F360 M860 INROG L981 KUSAK/K0876F380 L981 DIBED/N0472F380 L981 ADVAB L980 SUBIX Z20 SONUD P203 HLZ L980 TENLI L602 ERKIT
Aircraft A346/H-SDE2E3FGHIJ3J4J5M1RWXY/LB1D1

Departure

Time N/A
Airport Ürümqi Tianshan International Airport (ZWWW)

Arrival

Time 2026-04-12 19:47
Airport Teesside International Airport (EGNV)
Time Latitude Longitude Altitude Speed Heading
2026-04-12 17:09 49.50274 24.09316 38183 ft 412 kts 304°
2026-04-12 17:09 49.53170 24.01731 38179 ft 412 kts 304°
2026-04-12 17:10 49.56078 23.94095 38164 ft 413 kts 304°
2026-04-12 17:10 49.58978 23.86448 38179 ft 414 kts 304°
2026-04-12 17:11 49.61403 23.80034 38178 ft 414 kts 304°
2026-04-12 17:11 49.64313 23.72316 38179 ft 415 kts 304°
2026-04-12 17:12 49.67204 23.64585 38176 ft 415 kts 304°
2026-04-12 17:12 49.70073 23.56882 38173 ft 414 kts 303°
2026-04-12 17:13 49.72946 23.49138 38174 ft 414 kts 303°
2026-04-12 17:13 49.75813 23.41387 38171 ft 414 kts 303°
2026-04-12 17:14 49.78657 23.33676 38168 ft 414 kts 303°
2026-04-12 17:14 49.81513 23.25907 38169 ft 414 kts 303°
2026-04-12 17:15 49.84348 23.18177 38161 ft 412 kts 303°
2026-04-12 17:15 49.87041 23.10360 38165 ft 415 kts 297°
2026-04-12 17:16 49.89274 23.02069 38174 ft 415 kts 296°
2026-04-12 17:16 49.91476 22.93754 38171 ft 415 kts 296°
2026-04-12 17:17 49.93663 22.85502 38167 ft 415 kts 296°
2026-04-12 17:17 49.95864 22.77187 38168 ft 415 kts 296°
2026-04-12 17:18 49.98069 22.68836 38167 ft 415 kts 296°
2026-04-12 17:18 50.00248 22.60558 38162 ft 415 kts 296°
2026-04-12 17:19 50.02435 22.52221 38164 ft 415 kts 296°
2026-04-12 17:19 50.04606 22.43915 38134 ft 415 kts 296°
2026-04-12 17:20 50.06765 22.35639 38170 ft 413 kts 296°
2026-04-12 17:20 50.08922 22.27318 38155 ft 413 kts 296°
2026-04-12 17:21 50.11074 22.18991 38168 ft 413 kts 295°
2026-04-12 17:21 50.13211 22.10694 38174 ft 413 kts 295°
2026-04-12 17:22 50.15352 22.02357 38153 ft 412 kts 295°
2026-04-12 17:22 50.17480 21.94042 38163 ft 411 kts 295°
2026-04-12 17:23 50.19585 21.85770 38166 ft 411 kts 295°
2026-04-12 17:23 50.21695 21.77441 38173 ft 411 kts 295°
2026-04-12 17:24 50.23788 21.69165 38150 ft 411 kts 295°
2026-04-12 17:24 50.25899 21.60803 38142 ft 411 kts 295°
2026-04-12 17:25 50.27997 21.52456 38139 ft 410 kts 294°
2026-04-12 17:25 50.30065 21.44177 38146 ft 410 kts 294°
2026-04-12 17:26 50.32142 21.35839 38149 ft 410 kts 294°
2026-04-12 17:26 50.34212 21.27496 38141 ft 410 kts 294°
2026-04-12 17:27 50.36276 21.19164 38129 ft 409 kts 294°
2026-04-12 17:27 50.38307 21.10922 38136 ft 409 kts 294°
2026-04-12 17:28 50.40374 21.02492 38131 ft 409 kts 294°
2026-04-12 17:28 50.42407 20.94175 38133 ft 409 kts 293°
2026-04-12 17:29 50.44454 20.85769 38134 ft 409 kts 293°
2026-04-12 17:29 50.46479 20.77435 38118 ft 409 kts 293°
2026-04-12 17:30 50.48500 20.69078 38129 ft 408 kts 292°
2026-04-12 17:30 50.50500 20.60764 38128 ft 408 kts 292°
2026-04-12 17:31 50.52515 20.52361 38130 ft 408 kts 292°
2026-04-12 17:31 50.54510 20.44011 38126 ft 408 kts 292°
2026-04-12 17:32 50.56509 20.35629 38110 ft 408 kts 292°
2026-04-12 17:32 50.58498 20.27240 38122 ft 408 kts 292°
2026-04-12 17:33 50.60471 20.18882 38126 ft 408 kts 292°
2026-04-12 17:33 50.62449 20.10470 38127 ft 408 kts 291°
2026-04-12 17:34 50.64420 20.02058 38126 ft 408 kts 291°
2026-04-12 17:34 50.66372 19.93708 38112 ft 408 kts 291°
2026-04-12 17:35 50.68337 19.85262 38131 ft 409 kts 291°
2026-04-12 17:35 50.70294 19.76805 38128 ft 409 kts 291°
2026-04-12 17:36 50.72233 19.68397 38121 ft 409 kts 291°
2026-04-12 17:36 50.74181 19.59922 38131 ft 409 kts 291°
2026-04-12 17:37 50.76112 19.51495 38115 ft 409 kts 290°
2026-04-12 17:37 50.78056 19.42974 38120 ft 410 kts 290°
2026-04-12 17:38 50.79976 19.34511 38125 ft 410 kts 290°
2026-04-12 17:38 50.81897 19.26014 38121 ft 410 kts 290°
2026-04-12 17:39 50.83816 19.17490 38122 ft 410 kts 290°
2026-04-12 17:39 50.85733 19.08953 38110 ft 411 kts 290°
2026-04-12 17:40 50.87639 19.00433 38120 ft 412 kts 289°
2026-04-12 17:40 50.89547 18.91850 38122 ft 412 kts 289°
2026-04-12 17:41 50.91442 18.83294 38119 ft 412 kts 289°
2026-04-12 17:41 50.93341 18.74683 38119 ft 412 kts 289°
2026-04-12 17:42 50.95232 18.66079 38121 ft 412 kts 289°
2026-04-12 17:42 50.97117 18.57468 38119 ft 412 kts 289°
2026-04-12 17:43 50.99926 18.44567 38119 ft 412 kts 289°
2026-04-12 17:43 51.01796 18.35933 38117 ft 412 kts 289°
2026-04-12 17:44 51.04583 18.23007 38107 ft 413 kts 288°
2026-04-12 17:45 51.06435 18.14377 38116 ft 414 kts 288°
2026-04-12 17:45 51.08295 18.05647 38118 ft 414 kts 288°
2026-04-12 17:46 51.10143 17.96945 38117 ft 414 kts 288°
2026-04-12 17:46 51.11986 17.88232 38116 ft 414 kts 288°
2026-04-12 17:47 51.13816 17.79555 38110 ft 414 kts 288°
2026-04-12 17:47 51.15640 17.70867 38116 ft 415 kts 287°
2026-04-12 17:48 51.17467 17.62109 38116 ft 415 kts 287°
2026-04-12 17:48 51.19274 17.53414 38107 ft 414 kts 287°
2026-04-12 17:49 51.21093 17.44627 38103 ft 414 kts 287°
2026-04-12 17:49 51.22889 17.35914 38110 ft 415 kts 287°
2026-04-12 17:50 51.24699 17.27105 38100 ft 415 kts 287°
2026-04-12 17:50 51.26486 17.18352 38094 ft 415 kts 287°
2026-04-12 17:51 51.28277 17.09542 38094 ft 415 kts 287°
2026-04-12 17:51 51.30054 17.00765 38093 ft 415 kts 287°
2026-04-12 17:52 51.31831 16.91957 38087 ft 416 kts 286°
2026-04-12 17:52 51.33614 16.83075 38093 ft 418 kts 286°
2026-04-12 17:53 51.35381 16.74228 38092 ft 418 kts 286°
2026-04-12 17:53 51.37150 16.65326 38088 ft 418 kts 286°
2026-04-12 17:54 51.38901 16.56478 38087 ft 418 kts 286°
2026-04-12 17:54 51.40658 16.47566 38081 ft 418 kts 285°
2026-04-12 17:55 51.42406 16.38665 38086 ft 420 kts 285°
2026-04-12 17:55 51.44145 16.29751 38080 ft 420 kts 285°
2026-04-12 17:56 51.45888 16.20777 38082 ft 420 kts 285°
2026-04-12 17:56 51.47613 16.11857 38082 ft 420 kts 285°
2026-04-12 17:57 51.49338 16.02900 38080 ft 420 kts 285°
2026-04-12 17:57 51.51070 15.93868 38074 ft 423 kts 285°
2026-04-12 17:58 51.52799 15.84793 38076 ft 423 kts 285°
2026-04-12 17:58 51.54507 15.75792 38070 ft 423 kts 285°
2026-04-12 17:59 51.56221 15.66713 38067 ft 423 kts 285°
2026-04-12 17:59 51.57917 15.57694 38070 ft 423 kts 284°
2026-04-12 18:00 51.59334 15.50123 38048 ft 422 kts 284°
2026-04-12 18:00 51.61024 15.41048 38069 ft 422 kts 284°
2026-04-12 18:01 51.62701 15.31998 38065 ft 422 kts 284°
2026-04-12 18:01 51.64379 15.22902 38066 ft 422 kts 284°
2026-04-12 18:02 51.66042 15.13843 38074 ft 422 kts 284°
2026-04-12 18:02 51.67700 15.04792 38062 ft 422 kts 284°
2026-04-12 18:03 51.69352 14.95687 38058 ft 422 kts 283°
2026-04-12 18:03 51.70995 14.86593 38060 ft 422 kts 283°
2026-04-12 18:04 51.72638 14.77460 38056 ft 422 kts 283°
2026-04-12 18:04 51.74275 14.68319 38058 ft 422 kts 283°
2026-04-12 18:05 51.75899 14.59220 38061 ft 425 kts 283°
2026-04-12 18:05 51.77521 14.50060 38061 ft 425 kts 283°
2026-04-12 18:06 51.79145 14.40839 38059 ft 425 kts 283°
2026-04-12 18:06 51.80754 14.31669 38059 ft 425 kts 283°
2026-04-12 18:07 51.82364 14.22444 38062 ft 425 kts 283°
2026-04-12 18:07 51.83967 14.13212 38062 ft 425 kts 282°
2026-04-12 18:08 51.85551 14.04038 38062 ft 425 kts 282°
2026-04-12 18:08 51.87138 13.94804 38064 ft 425 kts 282°
2026-04-12 18:09 51.88711 13.85596 38064 ft 425 kts 282°
2026-04-12 18:09 51.90288 13.76321 38085 ft 425 kts 282°
2026-04-12 18:10 51.91845 13.67132 38072 ft 424 kts 282°
2026-04-12 18:10 51.93400 13.57877 38077 ft 424 kts 282°
2026-04-12 18:11 51.94943 13.48647 38063 ft 424 kts 282°
2026-04-12 18:11 51.96486 13.39373 38081 ft 424 kts 282°
2026-04-12 18:12 51.98014 13.30142 38096 ft 424 kts 281°
2026-04-12 18:12 51.99549 13.20837 38088 ft 424 kts 281°
2026-04-12 18:13 52.01061 13.11589 38083 ft 424 kts 281°
2026-04-12 18:13 52.02575 13.02285 38073 ft 424 kts 281°
2026-04-12 18:14 52.04069 12.93052 38073 ft 424 kts 281°
2026-04-12 18:14 52.05566 12.83754 38086 ft 424 kts 281°
2026-04-12 18:15 52.07062 12.74436 38067 ft 425 kts 280°
2026-04-12 18:15 52.08536 12.65168 38092 ft 425 kts 280°
2026-04-12 18:16 52.10014 12.55820 38072 ft 424 kts 280°
2026-04-12 18:16 52.11472 12.46560 38061 ft 424 kts 280°
2026-04-12 18:17 52.12934 12.37221 38084 ft 424 kts 280°
2026-04-12 18:17 52.14379 12.27967 38061 ft 423 kts 279°
2026-04-12 18:18 52.15822 12.18628 38054 ft 423 kts 279°
2026-04-12 18:18 52.17264 12.09252 38055 ft 423 kts 279°
2026-04-12 18:19 52.18680 11.99995 38060 ft 422 kts 279°
2026-04-12 18:19 52.20100 11.90655 38054 ft 422 kts 279°
2026-04-12 18:20 52.21509 11.81357 38058 ft 423 kts 279°
2026-04-12 18:20 52.22913 11.72008 38056 ft 423 kts 279°
2026-04-12 18:21 52.24304 11.62688 38058 ft 423 kts 278°
2026-04-12 18:21 52.25694 11.53330 38053 ft 423 kts 278°
2026-04-12 18:22 52.27078 11.43950 38041 ft 423 kts 278°
2026-04-12 18:22 52.28452 11.34605 38049 ft 424 kts 278°
2026-04-12 18:23 52.29825 11.25180 38048 ft 425 kts 278°
2026-04-12 18:23 52.31188 11.15759 38049 ft 425 kts 278°
2026-04-12 18:24 52.32534 11.06395 38045 ft 425 kts 278°
2026-04-12 18:24 52.33883 10.96957 38049 ft 425 kts 278°
2026-04-12 18:25 52.34892 10.87461 38061 ft 420 kts 271°
2026-04-12 18:25 52.35201 10.77937 38056 ft 416 kts 265°
2026-04-12 18:26 52.36223 10.68547 38049 ft 432 kts 287°
2026-04-12 18:26 52.37727 10.64190 38057 ft 444 kts 300°
2026-04-12 18:26 52.39806 10.60418 38059 ft 456 kts 311°
2026-04-12 18:26 52.42423 10.57342 38057 ft 469 kts 324°
2026-04-12 18:27 52.45467 10.55156 38058 ft 482 kts 336°
2026-04-12 18:27 52.48787 10.54002 38054 ft 494 kts 348°
2026-04-12 18:27 52.52261 10.53948 38056 ft 504 kts
2026-04-12 18:27 52.55706 10.55005 38072 ft 513 kts 12°
2026-04-12 18:28 52.59058 10.57180 38059 ft 520 kts 24°
2026-04-12 18:28 52.62137 10.60399 38055 ft 525 kts 37°
2026-04-12 18:28 52.64799 10.64520 38047 ft 525 kts 49°
2026-04-12 18:29 52.68849 10.74452 38038 ft 525 kts 53°
2026-04-12 18:29 52.71385 10.78758 38010 ft 520 kts 32°
2026-04-12 18:29 52.74549 10.81542 38058 ft 512 kts 16°
2026-04-12 18:30 52.81442 10.83908 38057 ft 500 kts 357°
2026-04-12 18:30 52.88232 10.83062 38068 ft 485 kts 340°
2026-04-12 18:30 52.91433 10.81485 38006 ft 467 kts 331°
2026-04-12 18:31 52.94321 10.79253 38058 ft 448 kts 322°
2026-04-12 18:31 52.96869 10.76500 38050 ft 426 kts 314°
2026-04-12 18:31 52.99067 10.73320 38055 ft 416 kts 306°
2026-04-12 18:32 53.02523 10.65805 38070 ft 402 kts 291°
2026-04-12 18:32 53.04621 10.57345 38058 ft 390 kts 278°
2026-04-12 18:33 53.05348 10.48411 38061 ft 390 kts 265°
2026-04-12 18:33 53.04917 10.39383 38061 ft 397 kts 259°
2026-04-12 18:34 53.04281 10.30075 38064 ft 408 kts 259°
2026-04-12 18:34 53.03624 10.20652 38060 ft 414 kts 259°
2026-04-12 18:35 53.02954 10.11104 38064 ft 414 kts 259°
2026-04-12 18:35 53.02272 10.01567 38060 ft 414 kts 259°
2026-04-12 18:36 53.01702 9.93690 38059 ft 414 kts 259°
2026-04-12 18:37 53.00179 9.73011 38063 ft 414 kts 258°
2026-04-12 18:37 52.99470 9.63552 38064 ft 414 kts 258°
2026-04-12 18:38 52.98749 9.54041 38054 ft 414 kts 258°
2026-04-12 18:38 52.98025 9.44583 38054 ft 414 kts 258°
2026-04-12 18:39 52.97288 9.35067 38054 ft 414 kts 258°
2026-04-12 18:39 52.96544 9.25565 38057 ft 414 kts 258°
2026-04-12 18:40 52.95797 9.16110 38058 ft 414 kts 258°
2026-04-12 18:40 52.95041 9.06605 38067 ft 413 kts 258°
2026-04-12 18:41 52.94281 8.97202 38060 ft 413 kts 258°
2026-04-12 18:41 52.93508 8.87732 38059 ft 413 kts 258°
2026-04-12 18:42 52.92727 8.78255 38046 ft 413 kts 258°
2026-04-12 18:42 52.91946 8.68853 38057 ft 413 kts 257°
2026-04-12 18:43 52.90352 8.49948 38067 ft 413 kts 257°
2026-04-12 18:44 52.89546 8.40537 38066 ft 413 kts 257°
2026-04-12 18:44 52.88733 8.31140 38048 ft 413 kts 257°
2026-04-12 18:45 52.88048 8.23280 38067 ft 413 kts 257°
2026-04-12 18:45 52.87217 8.13836 38065 ft 413 kts 257°
2026-04-12 18:46 52.86380 8.04401 38070 ft 413 kts 257°
2026-04-12 18:46 52.85541 7.95031 38056 ft 413 kts 257°
2026-04-12 18:47 52.84688 7.85601 38044 ft 413 kts 257°
2026-04-12 18:47 52.83826 7.76168 38046 ft 413 kts 256°
2026-04-12 18:48 52.82964 7.66806 38044 ft 413 kts 256°
2026-04-12 18:48 52.82089 7.57389 38093 ft 413 kts 256°
2026-04-12 18:49 52.81207 7.47959 38058 ft 413 kts 256°
2026-04-12 18:49 52.80320 7.38584 38043 ft 413 kts 256°
2026-04-12 18:50 52.79422 7.29178 38042 ft 413 kts 256°
2026-04-12 18:50 52.78521 7.19814 38027 ft 413 kts 256°
2026-04-12 18:51 52.77607 7.10390 38035 ft 412 kts 256°
2026-04-12 18:51 52.76694 7.01061 38057 ft 412 kts 256°
2026-04-12 18:52 52.75769 6.91692 38039 ft 412 kts 255°
2026-04-12 18:52 52.74840 6.82368 38025 ft 412 kts 255°
2026-04-12 18:53 52.73900 6.73007 38025 ft 412 kts 255°
2026-04-12 18:53 52.72958 6.63701 38032 ft 412 kts 255°
2026-04-12 18:54 52.72003 6.54340 38036 ft 412 kts 255°
2026-04-12 18:54 52.71047 6.45022 38038 ft 413 kts 255°
2026-04-12 18:55 52.70075 6.35663 38022 ft 413 kts 255°
2026-04-12 18:55 52.69101 6.26359 38021 ft 413 kts 255°
2026-04-12 18:56 52.68112 6.16988 38021 ft 413 kts 255°
2026-04-12 18:56 52.67123 6.07676 38022 ft 413 kts 255°
2026-04-12 18:57 52.66123 5.98324 38038 ft 414 kts 254°
2026-04-12 18:57 52.65116 5.88995 38022 ft 416 kts 254°
2026-04-12 18:58 52.64092 5.79582 38015 ft 416 kts 254°
2026-04-12 18:58 52.63059 5.70157 38016 ft 416 kts 254°
2026-04-12 18:59 52.62029 5.60832 38001 ft 415 kts 254°
2026-04-12 18:59 52.61127 5.51395 37993 ft 420 kts 261°
2026-04-12 19:00 52.61679 5.41624 38012 ft 438 kts 276°
2026-04-12 19:00 52.63696 5.32062 38009 ft 447 kts 283°
2026-04-12 19:01 52.65996 5.22499 38013 ft 447 kts 283°
2026-04-12 19:01 52.68279 5.12972 38004 ft 446 kts 283°
2026-04-12 19:02 52.70558 5.03407 38000 ft 446 kts 283°
2026-04-12 19:02 52.72813 4.93881 38007 ft 448 kts 283°
2026-04-12 19:03 52.75087 4.84239 38002 ft 449 kts 283°
2026-04-12 19:03 52.77350 4.74601 38009 ft 449 kts 283°
2026-04-12 19:04 52.79595 4.64993 37998 ft 449 kts 283°
2026-04-12 19:04 52.81853 4.55285 37988 ft 449 kts 283°
2026-04-12 19:05 52.84094 4.45608 37985 ft 449 kts 283°
2026-04-12 19:05 52.86308 4.35998 37987 ft 449 kts 283°
2026-04-12 19:06 52.88530 4.26314 37985 ft 448 kts 282°
2026-04-12 19:06 52.90731 4.16673 37979 ft 448 kts 282°
2026-04-12 19:07 52.92934 4.06984 37979 ft 448 kts 282°
2026-04-12 19:07 52.95130 3.97252 37996 ft 451 kts 283°
2026-04-12 19:08 52.97334 3.87472 37978 ft 451 kts 283°
2026-04-12 19:08 52.99517 3.77742 37972 ft 451 kts 283°
2026-04-12 19:09 53.01703 3.67943 37970 ft 451 kts 283°
2026-04-12 19:09 53.03864 3.58203 37963 ft 451 kts 282°
2026-04-12 19:10 53.06026 3.48402 37976 ft 451 kts 282°
2026-04-12 19:10 53.08176 3.38619 37963 ft 451 kts 282°
2026-04-12 19:11 53.10172 3.28719 37959 ft 447 kts 278°
2026-04-12 19:11 53.11649 3.18746 37956 ft 443 kts 275°
2026-04-12 19:12 53.12992 3.08699 37955 ft 443 kts 275°
2026-04-12 19:12 53.14319 2.98611 37946 ft 445 kts 275°
2026-04-12 19:13 53.15634 2.88559 37941 ft 445 kts 275°
2026-04-12 19:13 53.16949 2.78429 37934 ft 445 kts 275°
2026-04-12 19:14 53.18245 2.68367 37940 ft 445 kts 275°
2026-04-12 19:14 53.19537 2.58244 37925 ft 445 kts 275°
2026-04-12 19:15 53.20822 2.48091 37938 ft 447 kts 275°
2026-04-12 19:15 53.22109 2.37964 37926 ft 447 kts 275°
2026-04-12 19:16 53.23390 2.27766 37937 ft 447 kts 275°
2026-04-12 19:16 53.24652 2.17612 37917 ft 447 kts 275°
2026-04-12 19:17 53.25912 2.07404 37917 ft 447 kts 275°
2026-04-12 19:17 53.27150 1.97257 37918 ft 450 kts 275°
2026-04-12 19:18 53.28401 1.86954 37910 ft 451 kts 275°
2026-04-12 19:18 53.29645 1.76628 37631 ft 450 kts 275°
2026-04-12 19:18 53.30252 1.71573 37372 ft 446 kts 275°
2026-04-12 19:19 53.30861 1.66478 37095 ft 442 kts 274°
2026-04-12 19:19 53.31459 1.61444 36783 ft 438 kts 274°
2026-04-12 19:19 53.32049 1.56450 36448 ft 436 kts 274°
2026-04-12 19:19 53.32651 1.51473 36063 ft 436 kts 275°
2026-04-12 19:20 53.33351 1.46510 35498 ft 438 kts 276°
2026-04-12 19:20 53.34068 1.41616 34954 ft 438 kts 276°
2026-04-12 19:20 53.34797 1.36649 34418 ft 437 kts 275°
2026-04-12 19:20 53.35521 1.31685 33856 ft 437 kts 275°
2026-04-12 19:21 53.36239 1.26729 33222 ft 437 kts 275°
2026-04-12 19:21 53.36943 1.21831 32617 ft 436 kts 275°
2026-04-12 19:21 53.37652 1.16885 32015 ft 435 kts 274°
2026-04-12 19:21 53.38358 1.11942 31427 ft 434 kts 274°
2026-04-12 19:22 53.39061 1.07002 30820 ft 433 kts 274°
2026-04-12 19:22 53.39759 1.02079 30254 ft 433 kts 274°
2026-04-12 19:22 53.40439 0.97212 29477 ft 435 kts 275°
2026-04-12 19:22 53.41135 0.92246 28648 ft 437 kts 276°
2026-04-12 19:23 53.41837 0.87263 27874 ft 438 kts 276°
2026-04-12 19:23 53.42536 0.82289 27269 ft 435 kts 276°
2026-04-12 19:23 53.43226 0.77381 26836 ft 429 kts 276°
2026-04-12 19:23 53.43906 0.72515 26300 ft 426 kts 277°
2026-04-12 19:24 53.44577 0.67683 25834 ft 422 kts 277°
2026-04-12 19:24 53.45236 0.62909 25383 ft 417 kts 277°
2026-04-12 19:24 53.45879 0.58232 24945 ft 414 kts 277°
2026-04-12 19:24 53.46525 0.53518 24512 ft 410 kts 277°
2026-04-12 19:25 53.47165 0.48838 24104 ft 407 kts 277°
2026-04-12 19:25 53.47896 0.44294 23670 ft 408 kts 283°
2026-04-12 19:25 53.48961 0.39848 23205 ft 410 kts 290°
2026-04-12 19:25 53.50347 0.35621 22733 ft 411 kts 297°
2026-04-12 19:26 53.51942 0.31704 22310 ft 410 kts 300°
2026-04-12 19:26 53.53606 0.27814 21871 ft 406 kts 301°
2026-04-12 19:26 53.55265 0.23965 21451 ft 403 kts 301°
2026-04-12 19:26 53.56907 0.20142 21027 ft 400 kts 301°
2026-04-12 19:27 53.58535 0.16335 20610 ft 398 kts 301°
2026-04-12 19:27 53.60148 0.12548 20195 ft 395 kts 301°
2026-04-12 19:27 53.61745 0.08787 19782 ft 393 kts 301°
2026-04-12 19:27 53.63317 0.05076 19376 ft 392 kts 301°
2026-04-12 19:28 53.64901 0.01329 18977 ft 390 kts 301°
2026-04-12 19:28 53.66468 -0.02381 18598 ft 388 kts 301°
2026-04-12 19:28 53.68039 -0.06098 18180 ft 387 kts 301°
2026-04-12 19:28 53.69632 -0.09796 17709 ft 396 kts 305°
2026-04-12 19:29 53.71621 -0.13118 17280 ft 410 kts 316°
2026-04-12 19:29 53.74051 -0.15757 16836 ft 415 kts 328°
2026-04-12 19:29 53.76628 -0.17960 16410 ft 413 kts 330°
2026-04-12 19:29 53.79177 -0.20051 15991 ft 411 kts 330°
2026-04-12 19:30 53.81746 -0.22146 15557 ft 408 kts 330°
2026-04-12 19:30 53.84303 -0.24232 15166 ft 405 kts 330°
2026-04-12 19:30 53.86835 -0.26300 14859 ft 403 kts 330°
2026-04-12 19:30 53.88507 -0.27669 14639 ft 401 kts 330°
2026-04-12 19:31 53.91019 -0.29727 14331 ft 399 kts 330°
2026-04-12 19:31 53.94323 -0.32443 13925 ft 396 kts 330°
2026-04-12 19:31 53.95999 -0.33824 13726 ft 395 kts 330°
2026-04-12 19:31 53.98435 -0.35835 13402 ft 392 kts 330°
2026-04-12 19:32 54.00890 -0.37864 13081 ft 390 kts 330°
2026-04-12 19:32 54.03332 -0.39890 12740 ft 389 kts 330°
2026-04-12 19:32 54.05760 -0.41908 12416 ft 387 kts 330°
2026-04-12 19:32 54.08178 -0.43922 12100 ft 385 kts 330°
2026-04-12 19:33 54.10550 -0.45900 11765 ft 383 kts 330°
2026-04-12 19:33 54.12937 -0.47897 11461 ft 381 kts 330°
2026-04-12 19:33 54.15323 -0.49898 11139 ft 379 kts 330°
2026-04-12 19:33 54.17694 -0.51892 10833 ft 377 kts 330°
2026-04-12 19:34 54.20009 -0.53841 10523 ft 375 kts 330°
2026-04-12 19:34 54.22344 -0.55808 10212 ft 367 kts 330°
2026-04-12 19:34 54.24572 -0.57680 9777 ft 348 kts 330°
2026-04-12 19:34 54.26683 -0.59448 9453 ft 325 kts 330°
2026-04-12 19:35 54.28648 -0.61088 9303 ft 302 kts 330°
2026-04-12 19:35 54.30473 -0.62600 9173 ft 291 kts 330°
2026-04-12 19:35 54.32294 -0.64111 9072 ft 290 kts 330°
2026-04-12 19:35 54.34106 -0.65616 8941 ft 289 kts 330°
2026-04-12 19:36 54.35916 -0.67118 8648 ft 288 kts 330°
2026-04-12 19:36 54.37714 -0.68612 8317 ft 285 kts 330°
2026-04-12 19:36 54.39496 -0.70094 8001 ft 283 kts 330°
2026-04-12 19:36 54.41266 -0.71570 7672 ft 282 kts 330°
2026-04-12 19:37 54.43026 -0.73040 7365 ft 280 kts 330°
2026-04-12 19:37 54.44757 -0.74488 7062 ft 279 kts 330°
2026-04-12 19:37 54.46495 -0.75942 6758 ft 277 kts 330°
2026-04-12 19:37 54.48228 -0.77392 6446 ft 275 kts 330°
2026-04-12 19:38 54.49929 -0.78813 6078 ft 265 kts 330°
2026-04-12 19:38 54.51540 -0.80153 5757 ft 254 kts 330°
2026-04-12 19:38 54.53107 -0.81452 5469 ft 247 kts 330°
2026-04-12 19:38 54.54652 -0.82734 5200 ft 244 kts 330°
2026-04-12 19:39 54.56169 -0.83994 4986 ft 239 kts 330°
2026-04-12 19:39 54.57635 -0.85205 4781 ft 235 kts 330°
2026-04-12 19:39 54.59096 -0.86434 4557 ft 231 kts 324°
2026-04-12 19:39 54.60197 -0.88322 4323 ft 221 kts 293°
2026-04-12 19:40 54.60765 -0.90780 4117 ft 219 kts 286°
2026-04-12 19:40 54.61263 -0.93275 3918 ft 218 kts 285°
2026-04-12 19:40 54.61743 -0.95732 3697 ft 218 kts 285°
2026-04-12 19:40 54.62221 -0.98210 3496 ft 217 kts 285°
2026-04-12 19:41 54.62697 -1.00671 3296 ft 216 kts 285°
2026-04-12 19:41 54.63173 -1.03127 3085 ft 215 kts 285°
2026-04-12 19:41 54.63652 -1.05582 2874 ft 214 kts 285°
2026-04-12 19:41 54.64131 -1.08031 2668 ft 214 kts 285°
2026-04-12 19:42 54.64608 -1.10458 2453 ft 211 kts 285°
2026-04-12 19:42 54.65074 -1.12815 2244 ft 206 kts 282°
2026-04-12 19:42 54.65075 -1.15190 2033 ft 193 kts 251°
2026-04-12 19:43 54.63760 -1.18745 1914 ft 166 kts 231°
2026-04-12 19:43 54.63014 -1.20263 1898 ft 164 kts 230°
2026-04-12 19:43 54.62251 -1.21743 1891 ft 165 kts 228°
2026-04-12 19:43 54.61479 -1.23203 1893 ft 165 kts 228°
2026-04-12 19:44 54.60701 -1.24656 1891 ft 164 kts 227°
2026-04-12 19:44 54.59933 -1.26083 1886 ft 165 kts 227°
2026-04-12 19:44 54.59149 -1.27542 1890 ft 165 kts 228°
2026-04-12 19:44 54.58367 -1.28999 1900 ft 164 kts 227°
2026-04-12 19:45 54.57595 -1.30440 1880 ft 163 kts 227°
2026-04-12 19:45 54.56820 -1.31887 1711 ft 162 kts 228°
2026-04-12 19:45 54.56063 -1.33304 1480 ft 160 kts 227°
2026-04-12 19:45 54.55335 -1.34664 1229 ft 149 kts 227°
2026-04-12 19:46 54.54638 -1.35969 1030 ft 147 kts 227°
2026-04-12 19:46 54.53942 -1.37264 812 ft 146 kts 227°
2026-04-12 19:46 54.53268 -1.38539 635 ft 145 kts 227°
2026-04-12 19:46 54.52580 -1.39823 448 ft 145 kts 228°
2026-04-12 19:47 54.51897 -1.41111 252 ft 144 kts 227°
2026-04-12 19:47 54.51231 -1.42355 134 ft 127 kts 227°
2026-04-12 19:47 54.50813 -1.43139 130 ft 50 kts 227°
2026-04-12 19:47 54.50642 -1.43459 126 ft 32 kts 227°
2026-04-12 19:48 54.50505 -1.43712 124 ft 28 kts 227°
2026-04-12 19:48 54.50389 -1.43929 128 ft 20 kts 227°
2026-04-12 19:48 54.50342 -1.44061 129 ft 11 kts 245°
2026-04-12 19:48 54.50309 -1.44183 130 ft 10 kts 242°
2026-04-12 19:49 54.50268 -1.44224 129 ft 6 kts 153°
2026-04-12 19:49 54.50268 -1.44164 131 ft 7 kts 63°
2026-04-12 19:49 54.50303 -1.44089 130 ft 10 kts 47°
2026-04-12 19:49 54.50362 -1.43980 123 ft 15 kts 47°
2026-04-12 19:50 54.50443 -1.43830 127 ft 19 kts 47°
2026-04-12 19:50 54.50544 -1.43642 126 ft 23 kts 47°
2026-04-12 19:50 54.50653 -1.43438 126 ft 24 kts 47°
2026-04-12 19:50 54.50768 -1.43223 129 ft 26 kts 47°
2026-04-12 19:51 54.50894 -1.42988 127 ft 28 kts 47°
2026-04-12 19:51 54.50993 -1.42802 125 ft 18 kts 47°
2026-04-12 19:51 54.51040 -1.42761 127 ft 7 kts 324°
2026-04-12 19:51 54.51058 -1.42859 128 ft 10 kts 273°
2026-04-12 19:52 54.51062 -1.42993 133 ft 12 kts 272°
2026-04-12 19:52 54.51065 -1.43137 135 ft 12 kts 268°
2026-04-12 19:52 54.51037 -1.43279 134 ft 13 kts 239°
2026-04-12 19:52 54.51005 -1.43372 131 ft 8 kts 239°
2026-04-12 19:53 54.50990 -1.43427 133 ft 3 kts 261°
2026-04-12 19:53 54.50997 -1.43475 128 ft 6 kts 300°
2026-04-12 19:53 54.51028 -1.43515 129 ft 3 kts 345°
2026-04-12 19:53 54.51042 -1.43511 132 ft 2 kts 32°
2026-04-12 19:54 54.51044 -1.43499 129 ft 1 kts 91°
2026-04-12 19:54 54.51043 -1.43491 130 ft 0 kts 103°